{"data":{"norad_id":65294,"epoch":"2026-05-25T03:39:56.589120Z","epoch_age_seconds":55669,"freshness":"FRESH","line1":"1 65294U 25184X   26145.15273830  .00006074  00000+0  42461-3 0  9999","line2":"2 65294  97.4474 197.6228 0001121 175.3934 184.7303 15.05657659 42804","mean_motion":15.05657659,"eccentricity":0.0001121,"inclination_deg":97.4474,"raan_deg":197.6228,"arg_perigee_deg":175.3934,"mean_anomaly_deg":184.7303,"bstar":0.00042461,"rev_number":4280,"period_min":95.639270413993,"perigee_km":548.71107419104,"apogee_km":550.26424764001,"semimajor_km":6927.6246609155,"source":"CELESTRAK","updated_at":"2026-05-25T13:38:20.755855Z"}}